Probability
0 0 0 0 0 0 0 0 0 0 0 0 0 0 0 0 0 0 0 0 0 0 0 0 0 0 0 0 0 0 0 0 0 0 1 5 15 24
0 0 0 0 0 0 0 0 0 0 0 0 0 0 0 0 0 0 0 0 0 0 0 0 0 0 0 0 0 0 0 0 0 0 1 4 10 15
0 0 0 0 0 0 0 0 0 0 0 0 0 0 0 0 0 0 0 0 0 0 0 0 0 0 0 0 0 0 0 0 0 0 0 1 4 6
0 0 0 0 0 0 0 0 0 0 0 0 0 0 0 0 0 0 0 0 0 0 0 0 0 0 0 0 0 0 0 0 0 0 0 0 1 1
0 0 0 0 0 0 0 0 0 0 0 0 0 0 0 0 0 0 0 0 0 0 0 0 0 0 0 0 0 0 0 0 0 0 0 0 0 0
0 0 0 0 0 0 0 0 0 0 0 0 0 0 0 0 0 0 0 0 0 0 0 0 0 0 0 0 0 0 0 0 0 0 0 0 0 0
0 0 0 0 0 0 0 0 0 0 0 0 0 0 0 0 0 0 0 0 0 0 0 0 0 0 0 0 0 0 0 0 0 0 0 0 0 0
0 0 0 0 0 0 0 0 0 0 0 0 0 0 0 0 0 0 0 0 0 0 0 0 0 0 0 0 0 0 0 0 0 0 0 0 0 0
0 0 0 0 0 0 0 0 0 0 0 0 0 0 0 0 0 0 0 0 0 0 0 0 0 0 0 0 0 0 0 0 0 0 0 0 0 0
0 0 0 0 0 0 0 0 0 0 0 0 0 0 0 0 0 0 0 0 0 0 0 0 0 0 0 0 0 0 0 0 0 0 0 0 0 0
0 0 0 0 0 0 0 0 0 0 0 0 0 0 0 0 0 0 0 0 0 0 0 0 0 0 0 0 0 0 0 0 0 0 0 0 0 0
0 0 0 0 0 0 0 0 0 0 0 0 0 0 0 0 0 0 0 0 0 0 0 0 0 0 0 0 0 0 0 0 0 0 0 0 0 0
0 0 0 0 0 0 0 0 0 0 0 0 0 0 0 0 0 0 0 0 0 0 0 0 0 0 0 0 0 0 0 0 0 0 0 0 0 0
0 0 0 0 0 0 0 0 0 0 0 0 0 0 0 0 0 0 0 0 0 0 0 0 0 0 0 0 0 0 0 0 0 0 0 0 0 0
0 0 0 0 0 0 0 0 0 0 0 0 0 0 0 0 0 0 0 0 0 0 0 0 0 0 0 0 0 0 0 0 0 0 0 0 0 0
0 0 0 0 0 0 0 0 0 0 0 0 0 0 0 0 0 0 0 0 0 0 0 0 0 0 0 0 0 0 0 0 0 0 0 0 0 0
0 0 0 0 0 0 0 0 0 0 0 0 0 0 0 0 0 0 0 0 0 0 0 0 0 0 0 0 0 0 0 0 0 0 0 0 0 0
0 0 0 0 0 0 0 0 0 0 0 0 0 0 0 0 0 0 0 0 0 0 0 0 0 0 0 0 0 0 0 0 0 0 0 0 0 0
0 0 0 0 0 0 0 0 0 0 0 0 0 0 0 0 0 0 0 0 0 0 0 0 0 0 0 0 0 0 0 0 0 0 0 0 0 0
0 0 0 0 0 0 0 0 0 0 0 0 0 0 0 0 0 0 0 0 0 0 0 0 0 0 0 0 0 0 0 0 0 0 0 0 0 0
0 0 0 0 0 0 0 0 0 0 0 0 0 0 0 0 0 0 0 0 0 0 0 0 0 0 0 0 0 0 0 0 0 0 0 0 0 0
0 0 0 0 0 0 0 0 0 0 0 0 0 0 0 0 0 0 0 0 0 0 0 0 0 0 0 0 0 0 0 0 0 0 0 0 0 0
0 0 0 0 0 0 0 0 0 0 0 0 0 0 0 0 0 0 0 0 0 0 0 0 0 0 0 0 0 0 0 0 0 0 0 0 0 0
Wind_Speed
8 9 8 8 7 7 8 8 9 12 13 9 6 7 8 8 13 9 8 17 20 20 20 20 20 20 21 20 20 19 18 16 14 14 13 15 22 27
7 8 9 8 7 7 7 7 8 9 11 9 8 9 10 10 15 10 10 20 19 20 20 20 20 20 20 20 19 19 19 17 16 15 14 14 17 23
10 10 11 10 8 7 7 7 8 8 11 11 8 8 9 10 10 9 9 8 9 18 20 21 21 20 20 20 20 19 19 18 17 16 15 14 14 18
12 11 12 10 10 8 7 8 8 8 8 12 10 8 9 9 9 10 9 9 8 17 19 20 20 20 19 20 20 19 19 18 18 17 16 14 13 14
12 12 12 11 11 9 9 9 8 8 7 8 10 7 6 7 8 9 9 7 10 12 16 17 17 18 18 19 19 18 18 18 18 17 16 15 13 13
12 12 11 11 12 11 10 9 8 7 7 7 8 7 6 6 6 8 9 7 8 10 10 12 15 17 18 19 19 18 18 17 18 17 16 14 13 12
10 10 10 14 17 13 10 8 6 5 6 7 8 8 7 7 7 6 9 9 9 5 6 8 8 8 9 13 16 17 18 18 18 18 17 15 13 12
8 8 9 12 16 20 21 19 14 8 7 6 7 8 8 8 8 8 8 9 7 3 6 10 7 8 7 7 13 17 17 18 17 17 17 15 13 13
7 7 8 10 15 10 15 17 14 17 15 8 7 8 8 8 9 10 8 8 9 7 7 9 5 8 7 9 16 17 17 16 16 16 16 15 14 13
7 7 8 9 12 14 8 6 7 8 10 8 6 8 8 8 8 8 8 8 8 7 6 7 5 6 8 7 15 18 17 17 16 16 16 15 14 13
6 7 8 9 18 19 6 5 7 7 10 14 15 13 16 16 12 6 6 7 7 4 3 5 4 6 6 7 9 14 16 16 16 16 16 15 14 12
5 6 12 15 18 16 4 4 7 6 5 7 9 11 9 11 14 6 5 6 6 5 3 3 4 5 6 4 4 5 7 12 16 16 15 14 13 9
5 5 7 17 17 16 11 4 9 7 3 5 6 6 6 5 6 6 6 6 7 7 4 3 4 3 5 6 5 4 4 4 6 9 12 14 14 12
5 5 7 16 16 15 11 13 15 10 4 5 6 6 6 6 6 7 8 8 9 11 9 7 6 4 4 5 6 5 4 4 4 5 6 10 12 14
4 10 13 14 13 9 12 15 11 5 5 5 6 7 6 7 7 7 7 8 9 9 10 10 10 8 8 7 6 5 4 3 3 4 6 7 8 8
5 7 11 12 9 10 9 8 5 5 6 5 6 7 7 7 6 6 7 7 6 6 6 8 9 10 9 10 9 9 6 4 3 3 4 5 6 7
3 2 3 4 5 5 5 5 4 5 6 5 6 7 7 7 7 6 6 6 5 6 6 5 6 8 11 9 7 8 7 6 5 4 4 6 7 8
4 2 4 4 5 6 6 6 5 5 5 6 6 6 7 8 8 7 6 6 7 7 7 6 5 4 4 7 12 9 7 6 4 5 5 6 7 7
2 3 4 4 5 6 6 6 6 6 5 5 6 6 7 7 8 8 7 7 7 7 7 6 5 4 3 3 5 9 6 4 3 4 5 5 6 7
2 3 4 4 5 5 6 6 6 6 5 5 6 6 6 7 7 8 7 8 8 8 8 6 5 4 4 4 4 4 5 5 4 5 4 3 3 4
3 3 4 4 5 5 5 5 6 6 5 5 5 6 6 6 7 7 8 12 10 7 8 8 8 11 6 4 4 4 3 4 5 5 5 6 6 6
3 4 4 4 4 4 5 5 5 5 5 5 5 6 6 6 7 8 8 8 8 8 9 8 9 6 2 3 3 3 3 2 1 2 3 4 6 8
3 4 4 4 4 4 4 5 6 5 5 5 5 6 6 6 6 6 7 8 8 9 9 8 6 4 3 3 3 2 1 1 1 3 3 4 7 9
Wind_Direction
274 275 275 280 282 281 279 280 288 299 305 304 307 302 307 302 301 305 304 302 300 297 293 289 285 281 279 279 281 285 288 291 293 295 280 249 225 213
273 272 275 278 282 284 283 277 274 278 288 296 299 301 305 307 307 312 304 305 304 299 292 287 284 281 278 276 276 277 280 282 283 287 282 263 234 218
276 275 276 277 279 281 283 281 279 276 283 293 294 297 300 305 307 305 300 297 296 298 292 286 281 279 278 274 272 271 273 275 276 278 280 273 252 227
276 276 277 279 277 278 278 280 280 277 278 292 301 301 299 300 303 307 309 307 303 298 294 289 282 277 274 272 269 267 267 269 270 270 273 273 264 243
272 273 274 275 276 275 276 276 277 283 278 286 296 297 296 302 310 308 305 296 300 301 300 292 289 284 279 273 268 265 263 261 263 263 267 270 264 250
269 269 269 270 271 273 275 272 273 279 283 286 292 298 298 301 303 309 311 308 305 302 297 301 298 293 284 276 268 264 262 260 260 259 257 258 258 249
270 269 270 278 285 287 287 282 278 278 286 292 296 301 304 310 308 303 305 309 304 291 314 305 301 290 283 278 272 262 258 254 255 254 252 252 250 247
278 280 280 286 292 300 304 304 306 302 292 285 291 295 294 294 295 296 301 307 306 310 320 302 289 281 275 263 262 262 257 251 250 249 247 246 246 242
281 283 289 290 302 292 292 296 303 306 307 297 285 281 283 285 287 291 290 288 285 293 301 290 274 276 269 266 266 263 258 250 246 245 243 242 241 238
280 277 278 281 287 289 276 268 272 282 291 291 267 268 273 276 271 282 288 289 280 273 266 274 282 280 282 272 267 259 255 248 242 242 239 237 236 233
279 278 285 278 292 308 304 277 284 287 299 307 309 309 310 314 311 313 308 303 300 289 262 272 297 296 281 265 260 254 249 243 239 237 233 230 228 224
280 281 301 306 310 324 314 286 290 287 289 306 311 311 308 306 312 307 288 287 290 290 279 304 294 307 300 282 267 255 246 238 233 231 227 223 215 211
294 294 296 313 324 332 337 307 303 322 312 300 299 298 297 292 290 282 267 260 263 260 271 298 286 288 285 301 302 271 251 235 221 222 221 218 210 204
293 292 297 320 334 338 334 325 333 343 320 308 308 308 308 303 296 288 277 265 255 257 260 252 258 262 282 291 287 293 279 247 214 207 207 208 209 209
294 311 322 331 337 333 327 335 343 329 310 312 311 307 302 293 294 293 288 279 271 260 255 246 244 249 247 253 272 288 291 273 236 210 201 198 198 195
308 315 328 332 332 326 328 328 320 309 315 305 304 304 304 304 304 305 305 307 298 286 262 251 248 245 245 245 250 263 266 263 261 231 208 200 196 196
313 312 319 322 322 316 312 309 308 312 316 309 308 312 314 314 313 313 306 308 298 298 300 287 261 247 240 238 243 247 252 252 244 241 213 200 198 193
351 321 316 316 316 316 317 316 313 313 311 310 311 313 315 315 315 315 315 312 308 303 299 300 302 284 243 233 227 242 248 245 239 228 213 195 193 188
336 300 300 305 308 307 308 307 308 309 308 310 312 312 314 314 316 318 321 318 312 306 302 299 293 281 264 263 246 222 228 233 225 218 207 192 185 184
273 279 289 295 299 302 305 307 307 308 310 311 310 311 312 314 316 319 319 317 315 313 310 304 292 282 260 266 286 278 244 233 222 209 197 175 162 153
274 278 282 289 293 298 302 303 305 305 307 309 308 310 312 314 315 316 316 320 322 316 314 308 295 296 277 254 255 263 263 244 222 210 183 163 157 157
266 275 281 287 291 292 297 300 304 305 307 306 306 309 310 310 312 315 319 320 318 314 307 302 303 304 278 254 264 273 281 284 246 186 180 172 165 167
260 270 278 286 287 288 292 296 299 301 301 302 305 309 312 314 313 315 318 319 319 319 321 320 323 322 313 299 294 294 309 325 96 104 82 102 119 118